Weather observations for the past three days for
Kake - Kake Airport
Imperial (Metric)
Date Time (akdt) Wind (mph) Vis. (mi.) Weather Sky Cond. Temperature (ºF) Relative Humidity Wind Chill (°F) Heat Index (°F) Pressure Precipitation (in)
Air Dwpt 6 hour altimeter (in) sea level (mb) 1 hr 3 hr 6 hr
Max. Min.
22 21:56 E 3 10.00 Overcast OVC085 54 52 62.1 54 93% 30.05 1018.2
22 20:56 NE 3 10.00 Mostly Cloudy BKN090 55 53.1 93% 30.05 1018.4
22 18:56 Calm 10.00 Mostly Cloudy BKN085 55.9 52 87% 30.06 1018.7
22 17:56 W 6 10.00 Overcast OVC085 60.1 52 75% 30.08 1019.1
22 16:56 W 5 10.00 Overcast OVC080 60.1 51.1 72% 30.09 1019.7
22 15:56 W 7 10.00 Overcast OVC080 62.1 51.1 62.1 57.9 67% 30.1 1019.8
22 13:56 W 7 10.00 Overcast OVC070 57.9 51.1 78% 30.11 1020.2
22 12:56 W 5 10.00 Overcast OVC070 60.1 52 75% 30.11 1020.2
22 11:56 W 6 10.00 Overcast OVC065 59 53.1 81% 30.12 1020.5
22 10:56 W 6 10.00 Overcast OVC070 59 54 83% 30.13 1020.9
22 09:56 Calm 10.00 Overcast OVC060 59 52 59 53.1 78% 30.13 1021.1
22 08:56 Calm 10.00 Overcast OVC060 57.9 52 81% 30.14 1021.3
22 07:56 E 3 10.00 Overcast OVC045 55.9 52 87% 30.14 1021.3
22 06:56 E 3 10.00 Overcast BKN045 OVC055 55 52 90% 30.15 1021.6
22 05:56 E 3 10.00 Overcast SCT043 OVC055 55 52 90% 30.15 1021.5
22 04:56 NE 5 10.00 Overcast SCT049 OVC070 54 52 93% 30.14 1021.4
22 03:56 E 5 10.00 Overcast SCT060 OVC070 53.1 51.1 59 52 93% 30.15 1021.5
22 02:56 E 5 10.00 Overcast FEW055 OVC080 52 51.1 97% 30.15 1021.5
22 01:56 E 5 10.00 Mostly Cloudy BKN085 53.1 51.1 93% 30.15 1021.6
22 00:56 NE 3 10.00 Overcast BKN046 OVC085 55 52 90% 30.16 1022.0
21 23:56 NE 3 10.00 Overcast OVC080 55.9 52 87% 30.16 1022.1
21 22:56 E 3 10.00 Overcast BKN048 OVC055 57 50 78% 30.17 1022.3
21 21:56 E 3 10.00 Overcast OVC048 57 51.1 64 57 81% 30.17 1022.4
21 20:56 SE 6 10.00 Overcast SCT046 OVC070 59 52 78% 30.14 1021.4
21 19:56 E 3 10.00 Overcast BKN041 OVC050 60.1 55 84% 30.13 1020.9
21 18:56 Calm 10.00 Overcast OVC042 62.1 55 78% 30.13 1020.7
21 16:56 W 5 10.00 Mostly Cloudy BKN044 BKN065 59 55.9 90% 30.12 1020.6
21 15:56 E 5 10.00 Overcast SCT033 OVC042 63 57 63 57 81% 30.13 1020.9
21 14:56 Calm 10.00 Light Rain OVC025 60.1 57.9 93% 30.12 1020.6
21 13:56 W 3 10.00 Overcast OVC025 57.9 54 87% 30.11 1020.3
21 12:56 W 3 10.00 Overcast OVC021 60.1 55.9 86% 30.1 1019.9
21 11:56 Calm 10.00 Overcast OVC023 60.1 55 84% 30.11 1020.0
21 10:56 SW 3 10.00 Overcast OVC023 57.9 55 90% 30.11 1020.2
21 09:56 Calm 10.00 Overcast OVC023 57.9 55 59 55 90% 30.11 1020.4
21 08:56 Calm 10.00 Overcast OVC023 57 55 93% 30.12 1020.7
21 07:56 Calm 10.00 Overcast OVC025 57.9 55.9 93% 30.12 1020.7
21 06:56 Calm 10.00 Overcast OVC023 55.9 55 97% 30.13 1020.8
21 05:56 Calm 10.00 Overcast BKN025 OVC035 55.9 55 97% 30.14 1021.2
21 04:56 Calm 10.00 Overcast BKN022 OVC035 55.9 55 97% 30.15 1021.6
21 03:56 Calm 10.00 Overcast BKN020 OVC037 57.9 57 62.1 57 97% 30.16 1021.9
21 02:56 Calm 10.00 Overcast FEW010 OVC020 57.9 57 97% 30.16 1022.1
21 01:56 Calm 10.00 Overcast SCT022 OVC040 57 55.9 96% 30.18 1022.6
21 00:56 Calm 10.00 Overcast BKN024 OVC039 60.1 57.9 93% 30.18 1022.6
20 23:56 Calm 10.00 Overcast FEW012 OVC037 57.9 57 97% 30.19 1023.0
20 22:56 SE 5 10.00 Overcast BKN039 OVC075 57.9 55.9 93% 30.19 1023.1
20 21:56 Calm 10.00 Overcast OVC037 62.1 59 71.1 60.1 90% 30.19 1023.1
20 20:56 Calm 10.00 Overcast OVC037 62.1 59 90% 30.2 1023.3
20 19:56 NW 5 10.00 Overcast OVC039 61 57.9 90% 30.19 1023.0
20 18:56 W 7 10.00 Mostly Cloudy SCT045 BKN070 60.1 57 90% 30.2 1023.1
20 17:56 Vrbl 3 10.00 Partly Cloudy FEW055 SCT095 68 61 78% 30.19 1022.8
20 16:56 Vrbl 3 10.00 Light Rain SCT046 BKN060 OVC090 68 64 87% 30.19 1022.9
20 15:56 Calm 10.00 Overcast OVC090 71.1 62.1 71.1 61 73% 30.19 1022.8
20 14:56 W 5 10.00 Overcast FEW025 BKN070 OVC090 68 62.1 81% 30.2 1023.3
20 13:56 Vrbl 3 10.00 Overcast SCT021 BKN044 OVC065 66.9 62.1 84% 30.21 1023.7
20 12:56 Calm 10.00 Light Rain FEW018 BKN032 OVC055 66 62.1 87% 30.22 1024.0
20 11:56 Calm 10.00 Overcast FEW015 SCT023 OVC047 66 63 90% 30.22 1024.0
20 10:56 Calm 10.00 Overcast BKN029 OVC034 64.9 61 87% 30.23 1024.2
20 09:56 Calm 10.00 Overcast BKN019 BKN029 OVC049 63 60.1 63 55.9 90% 30.22 1024.1
20 08:56 Calm 10.00 Overcast OVC028 60.1 59 96% 30.22 1024.0
20 07:56 Calm 10.00 Overcast SCT026 BKN033 OVC041 59 57.9 96% 30.21 1023.7
20 06:56 Calm 10.00 Overcast OVC028 57.9 57.9 100% 30.2 1023.4
20 05:56 Calm 10.00 Light Rain FEW001 BKN030 OVC041 57 57 100% 30.2 1023.5
20 04:56 S 3 10.00 Overcast FEW029 BKN035 OVC042 57.9 57.9 100% 30.2 1023.4
20 03:56 Calm 10.00 Overcast OVC030 59 57.9 61 57.9 96% 30.21 1023.5
20 02:56 Calm 10.00 Overcast OVC026 59 57.9 96% 30.21 1023.5
20 01:56 NE 3 10.00 Overcast OVC026 57.9 57 97% 30.21 1023.5
20 00:56 E 5 10.00 Overcast FEW036 OVC055 57.9 57 97% 30.2 1023.4
19 23:56 Calm 10.00 Overcast BKN028 OVC034 60.1 57 90% 30.2 1023.3
19 22:56 E 6 10.00 Overcast OVC030 61 55.9 84% 30.2 1023.3
Date Time (akdt) Wind (mph) Vis. (mi.) Weather Sky Cond. Air Dwpt Max. Min. Relative Humidity Wind Chill (°F) Heat Index (°F) altimeter (in) sea level (mb) 1 hr 3 hr 6 hr
6 hour
Temperature (ºF) Pressure Precipitation (in)